Weather in Hong Kong

China     22°17′03″N   114°09′02″E
temp.,
°C
wind,
m/s
gust,
m/s
humid.,
%
clouds,
%
prec.,
mm/h
press.,
hPa
HPBL,
m
14 april, wed
wed1423:00+24sse228349 0.0 1014128
02:00+24ese22855 0.0 1013134
05:00+24e34886 0.0 1013260
08:00+23e788799 0.2 1015557
11:00+23e888768 0.1 1016574
14:00+23e788677 0.3 1013582
17:00+23e678599 0.1 1012652
20:00+23e7887100 0.3 1013624
15 april, thu
thu1523:00+23e998699 0.3 1015693
02:00+22e10118696 0.3 1014679
05:00+21e10118698 0.1 1013675
08:00+22e10108499 0.1 1015693
11:00+22e898399 0.1 1015746
14:00+22e778398 0.1 1013636
17:00+22ene558498 0.0 1012555
20:00+22e5585100 0.1 1014441
16 april, fri
fri1623:00+22ene558699 0.0 1015407
02:00+22ene568895 0.1 1014458
05:00+22ene6788100 0.1 1014545
08:00+22ene7885100 0.2 1015574
11:00+23ene7680100 0.0 1016650
14:00+23e5576100 0.0 1014570
17:00+23e5577100 0.0 1014416
20:00+23e4481100 0.0 1015357
17 april, sat
sat1723:00+23ene458228 0.0 1017362
02:00+23ene558345 0.0 1016371
05:00+23ene568452 0.0 1016491
08:00+23ene678295 0.0 1017613
11:00+23ene777715 0.0 1018587
14:00+24e76745 0.0 1015527
17:00+24e67755 0.0 1015515
20:00+23ene787982 0.0 1017659
18 april, sun
sun1823:00+23e101275100 0.0 1018825
02:00+23e111467100 0.0 1017864
05:00+22ene121659100 0.0 1016775
08:00+23e1215575 0.0 1017842
11:00+23e12145134 0.0 1017898
14:00+23e10115186 0.0 1015813
17:00+23e91059100 0.0 1014819
20:00+22ene91063100 0.0 1016893